Weather History for Shemya, AK

Change the Weather History Date:

Friday, December 7, 2012

  Actual Average Record
Temperature  
Mean Temperature 30 °F -  
Max Temperature 33 °F 36 °F 46 °F (1950)
Min Temperature 28 °F 30 °F 18 °F (1974)
Degree Days  
Heating Degree Days 34    
Moisture  
Dew Point 25 °F    
Average Humidity 77    
Maximum Humidity 88    
Minimum Humidity 59    
Precipitation  
Precipitation 0.00 in - - ()
Sea Level Pressure  
Sea Level Pressure 29.88 in    
Wind  
Wind Speed 24 mph (NNE)    
Max Wind Speed 37 mph    
Max Gust Speed 41 mph    
Visibility 7 miles    
Events Snow    
Averages and records for this station are not official NWS values.
T = Trace of Precipitation, MM = Missing Value Source: NWS Daily Summary

Daily Weather History Graph

Daily Weather History Graph

Search for Another Location

Airport:

Trip Planner

Search our weather history database for the weather conditions in past years. The results will help you decide how hot, cold, wet, or windy it might be!

Date:

Astronomy

Dec. 06, 2012 Rise Set
Actual Time 10:20 AM HAST 6:09 PM HAST
Civil Twilight 9:39 AM HAST 6:50 PM HAST
Nautical Twilight 8:55 AM HAST 7:34 PM HAST
Astronomical Twilight 8:13 AM HAST 8:16 PM HAST
Moon 3:15 AM HAST (12/7) 2:53 PM HAST (12/7)
Length of Visible Light 9h 11m
Length of Day
7h 48m
Last Quarter, 36% of the Moon is Illuminated
Dec 7
Last Quarter
Dec 12
New
Dec 19
First Quarter
Dec 28
Full
Jan 4
Last Quarter

Hourly Weather History & Observations

Time (HAST) Temp. Windchill Dew Point Humidity Pressure Visibility Wind Dir Wind Speed Gust Speed Precip Events Conditions
12:56 AM 33.1 °F 20.3 °F 19.9 °F 59% 30.06 in 10.0 mi NNE 24.2 mph - N/A   Scattered Clouds
1:56 AM 32.0 °F 19.2 °F 23.0 °F 69% 30.06 in 10.0 mi NNE 23.0 mph - N/A   Overcast
2:56 AM 33.1 °F 20.9 °F 24.1 °F 70% 30.04 in 10.0 mi NE 21.9 mph 27.6 mph N/A   Scattered Clouds
3:03 AM 32.0 °F 20.5 °F 24.8 °F 75% 30.03 in 10.0 mi NNE 18.4 mph 27.6 mph N/A   Mostly Cloudy
3:14 AM 33.8 °F 20.8 °F 24.8 °F 70% 30.03 in 6.2 mi NNE 26.5 mph 31.1 mph N/A Snow Light Snow
4:06 AM 32.0 °F 21.2 °F 24.8 °F 75% 30.02 in 9.0 mi NNE 16.1 mph - N/A   Mostly Cloudy
4:56 AM 32.0 °F 21.2 °F 25.0 °F 75% 30.02 in 9.0 mi NE 16.1 mph 26.5 mph N/A   Mostly Cloudy
5:56 AM 32.0 °F 18.9 °F 21.9 °F 66% 30.01 in 10.0 mi NNE 24.2 mph - N/A   Scattered Clouds
6:31 AM 30.2 °F 18.5 °F 26.6 °F 86% 29.99 in - North 17.3 mph - N/A Snow Light Snow
6:56 AM 32.0 °F 20.1 °F 25.0 °F 75% 29.99 in 10.0 mi North 19.6 mph - N/A   Mostly Cloudy
7:56 AM 32.0 °F 17.9 °F 25.0 °F 75% 29.99 in 7.0 mi NNE 28.8 mph 32.2 mph N/A Snow Light Snow
8:20 AM 30.2 °F 17.4 °F 26.6 °F 86% 29.97 in 6.2 mi NNE 20.7 mph 26.5 mph N/A   Mostly Cloudy
8:56 AM 30.0 °F 16.9 °F 27.0 °F 88% 29.98 in 5.0 mi NNE 21.9 mph 35.7 mph N/A Snow Light Snow
9:04 AM 30.2 °F 18.1 °F 26.6 °F 86% 29.97 in 6.2 mi NNE 18.4 mph 28.8 mph N/A Snow Light Snow
9:56 AM 32.0 °F 18.6 °F 21.9 °F 66% 29.97 in 10.0 mi North 25.3 mph 31.1 mph N/A   Scattered Clouds
10:56 AM 30.9 °F 17.2 °F 23.0 °F 72% 29.96 in 10.0 mi North 25.3 mph - N/A   Mostly Cloudy
11:56 AM 30.9 °F 17.2 °F 23.0 °F 72% 29.94 in 10.0 mi North 25.3 mph 31.1 mph N/A   Scattered Clouds
12:56 PM 32.0 °F 18.4 °F 24.1 °F 73% 29.92 in 10.0 mi North 26.5 mph 36.8 mph N/A   Scattered Clouds
1:32 PM 30.2 °F 15.7 °F 24.8 °F 80% 29.91 in 2.5 mi NNE 27.6 mph 35.7 mph N/A Snow Light Snow
1:34 PM 30.2 °F 16.8 °F 24.8 °F 80% 29.90 in 1.5 mi North 23.0 mph 35.7 mph N/A Snow Light Snow
1:38 PM 30.2 °F 15.9 °F 26.6 °F 86% 29.90 in 1.8 mi NNE 26.5 mph 31.1 mph N/A Snow Light Snow
1:42 PM 30.2 °F 16.2 °F 26.6 °F 86% 29.90 in - NNE 25.3 mph 31.1 mph N/A Snow Light Snow
1:53 PM 30.2 °F 15.4 °F 26.6 °F 86% 29.89 in - NNE 28.8 mph 35.7 mph N/A Snow Light Snow
1:56 PM 30.0 °F 15.2 °F 26.1 °F 85% 29.89 in 2.0 mi NNE 28.8 mph 35.7 mph N/A Snow Light Snow
2:11 PM 30.2 °F 16.5 °F 26.6 °F 86% 29.88 in 9.0 mi North 24.2 mph - N/A Snow Light Snow
2:36 PM 30.2 °F 16.5 °F 26.6 °F 86% 29.88 in 6.2 mi NNE 24.2 mph 38.0 mph N/A Snow Light Snow
2:56 PM 30.9 °F 16.9 °F 26.1 °F 82% 29.88 in 1.5 mi NNE 26.5 mph 34.5 mph N/A Snow Light Snow
3:00 PM 30.2 °F 16.5 °F 26.6 °F 86% 29.86 in 1.2 mi NNE 24.2 mph 34.5 mph N/A Snow Light Snow
3:02 PM 30.2 °F 15.4 °F 26.6 °F 86% 29.86 in 1.5 mi NNE 28.8 mph - N/A Snow Light Snow
3:04 PM 30.2 °F 16.5 °F 26.6 °F 86% 29.86 in - NNE 24.2 mph 31.1 mph N/A Snow Light Snow
3:12 PM 30.2 °F 15.9 °F 26.6 °F 86% 29.86 in 5.0 mi North 26.5 mph 33.4 mph N/A Snow Light Snow
3:27 PM 32.0 °F 18.6 °F 23.0 °F 69% 29.85 in 6.2 mi North 25.3 mph 29.9 mph N/A   Overcast
3:56 PM 33.1 °F 20.1 °F 21.0 °F 61% 29.84 in 10.0 mi North 25.3 mph 31.1 mph N/A   Overcast
4:37 PM 30.2 °F 15.2 °F 24.8 °F 80% 29.84 in 2.5 mi NNE 29.9 mph 38.0 mph N/A Snow Light Snow
4:40 PM 28.4 °F 14.7 °F 24.8 °F 86% 29.83 in 1.5 mi NNE 21.9 mph - N/A Snow Light Snow
4:46 PM 30.2 °F 18.1 °F 26.6 °F 86% 29.83 in - NNE 18.4 mph - N/A Snow Light Snow
4:49 PM 30.2 °F 18.5 °F 26.6 °F 86% 29.83 in 5.0 mi NNE 17.3 mph - N/A Snow Light Snow
4:56 PM 30.9 °F 19.4 °F 27.0 °F 85% 29.83 in 9.0 mi North 17.3 mph - N/A   Overcast
5:56 PM 32.0 °F 18.6 °F 23.0 °F 69% 29.81 in 10.0 mi North 25.3 mph 31.1 mph N/A   Mostly Cloudy
6:30 PM 30.2 °F 17.4 °F 23.0 °F 75% 29.80 in 6.2 mi NNE 20.7 mph - N/A Snow Light Snow
6:37 PM 32.0 °F 20.1 °F 24.8 °F 75% 29.80 in 6.2 mi North 19.6 mph - N/A Snow Light Snow
6:56 PM 33.1 °F 19.8 °F 21.0 °F 61% 29.80 in 10.0 mi North 26.5 mph 32.2 mph N/A   Overcast
7:56 PM 32.0 °F 18.9 °F 23.0 °F 69% 29.78 in 10.0 mi North 24.2 mph 31.1 mph N/A   Mostly Cloudy
8:12 PM 30.2 °F 16.5 °F 24.8 °F 80% 29.78 in - NNE 24.2 mph 35.7 mph N/A Snow Light Snow
8:19 PM 30.2 °F 16.8 °F 24.8 °F 80% 29.77 in 5.0 mi NNE 23.0 mph 34.5 mph N/A Snow Light Snow
8:56 PM 32.0 °F 18.1 °F 21.9 °F 66% 29.77 in 10.0 mi North 27.6 mph 34.5 mph N/A   Scattered Clouds
9:07 PM 30.2 °F 15.2 °F 24.8 °F 80% 29.77 in 2.5 mi NNE 29.9 mph 39.1 mph N/A Snow Light Snow
9:17 PM 30.2 °F 16.8 °F 26.6 °F 86% 29.76 in 6.2 mi North 23.0 mph 28.8 mph N/A Snow Light Snow
9:41 PM 30.2 °F 15.2 °F 26.6 °F 86% 29.76 in 2.5 mi North 29.9 mph 35.7 mph N/A Snow Light Snow
9:49 PM 30.2 °F 16.8 °F 26.6 °F 86% 29.75 in 5.0 mi North 23.0 mph 34.5 mph N/A Snow Light Snow
9:56 PM 30.9 °F 14.9 °F 26.1 °F 82% 29.75 in 6.0 mi North 36.8 mph 41.4 mph N/A Snow Light Snow
10:22 PM 30.2 °F 15.2 °F 21.2 °F 69% 29.74 in 6.2 mi North 29.9 mph 34.5 mph N/A Snow Light Snow
10:56 PM 32.0 °F 17.9 °F 23.0 °F 69% 29.73 in 10.0 mi North 28.8 mph 35.7 mph N/A   Mostly Cloudy
11:07 PM 30.2 °F 16.2 °F 24.8 °F 80% 29.72 in 4.0 mi North 25.3 mph 36.8 mph N/A Snow Light Snow
11:17 PM 32.0 °F 18.6 °F 23.0 °F 69% 29.72 in 6.2 mi North 25.3 mph 33.4 mph N/A   Mostly Cloudy
11:56 PM 32.0 °F 17.0 °F 23.0 °F 69% 29.72 in 9.0 mi North 33.4 mph 38.0 mph N/A Snow Light Snow